Weather History for Lancaster, CA

Change the Weather History Date:

Monday, March 26, 2012

  Actual Average Record
Temperature  
Mean Temperature 48 °F 55 °F  
Max Temperature 59 °F 69 °F 86 °F (1988)
Min Temperature 37 °F 40 °F 28 °F (1976)
Degree Days  
Heating Degree Days 17    
Month to date heating degree days 346  
Since 1 July heating degree days 2799  
Cooling Degree Days 0    
Month to date cooling degree days 0  
Year to date cooling degree days 0  
Moisture  
Dew Point 37 °F    
Average Humidity 63    
Maximum Humidity 85    
Minimum Humidity 40    
Precipitation  
Precipitation 0.00 in 0.02 in 0.79 in (1991)
Month to date precipitation 0.43 1.01  
Year to date precipitation 0.84 4.29  
Since 1 July precipitation 2.19 6.76  
Snow  
Snow 0.00 in - 0.00 in ()
Month to date snowfall 0.0  
Since 1 July snowfall 0.0  
Snow Depth 0.00 in    
Sea Level Pressure  
Sea Level Pressure 30.04 in    
Wind  
Wind Speed 12 mph (WSW)    
Max Wind Speed 23 mph    
Max Gust Speed 26 mph    
Visibility 10 miles    
Events      
T = Trace of Precipitation, MM = Missing Value Source: NWS Daily Summary

Daily Weather History Graph

Daily Weather History Graph

Search for Another Location

Airport:

Trip Planner

Search our weather history database for the weather conditions in past years. The results will help you decide how hot, cold, wet, or windy it might be!

Date:

Astronomy

Mar. 26, 2012 Rise Set
Actual Time 6:47 AM PDT 7:09 PM PDT
Civil Twilight 6:22 AM PDT 7:35 PM PDT
Nautical Twilight 5:52 AM PDT 8:04 PM PDT
Astronomical Twilight 5:22 AM PDT 8:34 PM PDT
Moon 8:50 AM PDT (3/26) 11:12 PM PDT (3/26)
Length of Visible Light 13h 12m
Length of Day
12h 22m
Waxing Crescent, 15% of the Moon is Illuminated
Mar 26
Waxing Crescent
Mar 30
First Quarter
Apr 6
Full
Apr 13
Last Quarter
Apr 21
New

Hourly Weather History & Observations

Time (PDT) Temp. Windchill Dew Point Humidity Pressure Visibility Wind Dir Wind Speed Gust Speed Precip Events Conditions
12:37 AM 39.2 °F 32.5 °F 35.6 °F 87% 29.92 in 10.0 mi West 10.4 mph - N/A   Mostly Cloudy
12:56 AM 39.0 °F 32.3 °F 35.1 °F 86% 29.94 in 10.0 mi West 10.4 mph - N/A   Overcast
1:20 AM 39.2 °F 31.6 °F 35.6 °F 87% 29.93 in 10.0 mi West 12.7 mph - N/A   Mostly Cloudy
1:31 AM 39.2 °F 31.6 °F 35.6 °F 87% 29.94 in 10.0 mi West 12.7 mph - N/A   Mostly Cloudy
1:56 AM 41.0 °F 33.5 °F 36.0 °F 82% 29.96 in 10.0 mi West 13.8 mph - N/A   Overcast
2:56 AM 41.0 °F 34.3 °F 36.0 °F 82% 29.98 in 10.0 mi WSW 11.5 mph - N/A   Scattered Clouds
3:56 AM 41.0 °F 33.5 °F 36.0 °F 82% 30.00 in 10.0 mi West 13.8 mph - N/A   Clear
4:56 AM 39.9 °F 33.4 °F 36.0 °F 86% 30.01 in 10.0 mi West 10.4 mph - N/A   Clear
5:56 AM 37.0 °F 29.8 °F 33.1 °F 86% 30.04 in 10.0 mi West 10.4 mph - N/A   Clear
6:56 AM 39.0 °F 30.6 °F 33.1 °F 79% 30.01 in 10.0 mi West 15.0 mph - N/A   Clear
7:56 AM 43.0 °F 37.7 °F 37.0 °F 80% 30.08 in 10.0 mi West 9.2 mph - N/A   Clear
8:56 AM 46.0 °F 44.8 °F 37.9 °F 73% 30.09 in 10.0 mi SSW 3.5 mph - N/A   Clear
9:56 AM 50.0 °F - 39.0 °F 66% 30.10 in 10.0 mi WSW 12.7 mph - N/A   Partly Cloudy
10:56 AM 52.0 °F - 39.0 °F 61% 30.11 in 10.0 mi WSW 13.8 mph - N/A   Clear
11:56 AM 54.0 °F - 37.9 °F 55% 30.11 in 10.0 mi WSW 16.1 mph - N/A   Clear
12:56 PM 55.9 °F - 37.0 °F 49% 30.11 in 10.0 mi SW 16.1 mph 23.0 mph N/A   Partly Cloudy
1:56 PM 57.0 °F - 37.0 °F 47% 30.09 in 10.0 mi WSW 17.3 mph - N/A   Clear
2:56 PM 57.9 °F - 36.0 °F 44% 30.08 in 10.0 mi SW 13.8 mph 24.2 mph N/A   Clear
3:56 PM 59.0 °F - 35.1 °F 41% 30.06 in 10.0 mi WSW 16.1 mph 23.0 mph N/A   Clear
4:56 PM 57.9 °F - 36.0 °F 44% 30.06 in 10.0 mi SW 16.1 mph - N/A   Clear
5:56 PM 55.9 °F - 37.0 °F 49% 30.06 in 10.0 mi WSW 21.9 mph - N/A   Clear
6:56 PM 53.1 °F - 39.0 °F 59% 30.06 in 10.0 mi SW 12.7 mph - N/A   Clear
7:56 PM 50.0 °F - 42.1 °F 74% 30.06 in 10.0 mi SW 10.4 mph - N/A   Clear
8:56 PM 48.9 °F - 41.0 °F 74% 30.07 in 10.0 mi WSW 12.7 mph - N/A   Clear
9:56 PM 46.9 °F - 39.9 °F 77% 30.08 in 10.0 mi WSW 5.8 mph - N/A   Clear
10:56 PM 46.9 °F - 39.9 °F 77% 30.08 in 10.0 mi WSW 5.8 mph - N/A   Clear
11:56 PM 45.0 °F 41.8 °F 39.0 °F 80% 30.07 in 10.0 mi WSW 5.8 mph - N/A   Clear